Brenham, TX

2:27 AM CST on February 14, 2016 (GMT -0600)
Brenham

Weather History for K11R - August, 2013

Change the Weather History Date:

Saturday, August 17, 2013

  Actual Average (KCLL) Record (KCLL)
Temperature  
Mean Temperature 84 °F 86 °F  
Max Temperature 95 °F 97 °F 107 °F (1951)
Min Temperature 72 °F 75 °F 62 °F (1992)
Degree Days  
Heating Degree Days 0 0  
Month to date heating degree days 0  
Since 1 June heating degree days 0  
Since 1 July heating degree days 0  
Cooling Degree Days 18 21  
Month to date cooling degree days 356  
Year to date cooling degree days 2071  
Since 1 June cooling degree days 1483  
Growing Degree Days 34 (Base 50)    
Moisture  
Dew Point 63 °F    
Average Humidity 56    
Maximum Humidity 91    
Minimum Humidity 22    
Precipitation  
Precipitation 0.00 in 0.09 in 6.19 in (1915)
Month to date precipitation 1.28  
Year to date precipitation 24.12  
Sea Level Pressure  
Sea Level Pressure 30.00 in    
Wind  
Wind Speed 3 mph (NNE)    
Max Wind Speed 12 mph    
Max Gust Speed 18 mph    
Visibility 10 miles    
Events      
T = Trace of Precipitation, MM = Missing Value Source: NWS Daily Summary

Daily Weather History Graph

Daily Weather History Graph

Search for Another Location

Airport or City:

Trip Planner

Search our weather history database for the weather conditions in past years. The results will help you decide how hot, cold, wet, or windy it might be!

Date:

Astronomy

Aug. 17, 2013 Rise Set
Actual Time 6:53 AM CDT 8:04 PM CDT
Civil Twilight 6:28 AM CDT 8:29 PM CDT
Nautical Twilight 5:59 AM CDT 8:59 PM CDT
Astronomical Twilight 5:28 AM CDT 9:30 PM CDT
Moon 5:14 PM CDT (8/17) 3:06 AM CDT (8/17)
Length of Visible Light 14h 00m
Length of Day
13h 10m
Waxing Gibbous, 84% of the Moon is Illuminated
Aug 17
Waxing Gibbous
Aug 20
Full
Aug 28
Last Quarter
Sep 5
New
Sep 12
First Quarter

Hourly Weather History & Observations

Time (CDT) Temp. Heat Index Dew Point Humidity Pressure Visibility Wind Dir Wind Speed Gust Speed Precip Events Conditions
12:15 AM 76.5 °F - 72.3 °F 87% 30.02 in 10.0 mi Calm Calm - N/A   Clear
12:35 AM 76.5 °F - 72.5 °F 87% 30.02 in 10.0 mi North 3.5 mph - N/A   Clear
12:55 AM 76.5 °F - 72.5 °F 87% 30.02 in 10.0 mi Calm Calm - N/A   Clear
1:15 AM 76.5 °F - 72.5 °F 87% 30.01 in 10.0 mi Calm Calm - N/A   Clear
1:35 AM 76.3 °F - 72.5 °F 88% 30.01 in 10.0 mi Calm Calm - N/A   Clear
1:55 AM 76.1 °F - 72.5 °F 89% 30.01 in 10.0 mi Calm Calm - N/A   Clear
2:15 AM 75.6 °F - 72.5 °F 90% 30.01 in 7.0 mi Calm Calm - N/A   Clear
2:35 AM 75.6 °F - 72.5 °F 90% 30.01 in 7.0 mi Calm Calm - N/A   Clear
2:55 AM 75.4 °F - 72.5 °F 91% 30.01 in 7.0 mi Calm Calm - N/A   Clear
3:15 AM 75.4 °F - 72.1 °F 90% 30.00 in 7.0 mi Calm Calm - N/A   Clear
3:35 AM 75.2 °F - 72.0 °F 90% 30.00 in 10.0 mi North 3.5 mph - N/A   Clear
3:55 AM 75.6 °F - 72.0 °F 89% 30.01 in 7.0 mi Calm Calm - N/A   Clear
4:15 AM 75.4 °F - 71.8 °F 89% 30.01 in 7.0 mi North 3.5 mph - N/A   Clear
4:35 AM 75.2 °F - 71.6 °F 89% 30.01 in 7.0 mi North 3.5 mph - N/A   Clear
4:55 AM 75.2 °F - 71.6 °F 89% 30.01 in 10.0 mi NNE 3.5 mph - N/A   Clear
5:15 AM 75.2 °F - 71.1 °F 87% 30.00 in 10.0 mi NNE 3.5 mph - N/A   Clear
5:35 AM 75.2 °F - 70.2 °F 84% 30.01 in 10.0 mi NNE 4.6 mph - N/A   Clear
5:55 AM 74.5 °F - 69.1 °F 83% 30.01 in 10.0 mi NNE 3.5 mph - N/A   Clear
6:15 AM 73.9 °F - 68.5 °F 83% 30.01 in 10.0 mi NNE 3.5 mph - N/A   Clear
6:35 AM 73.4 °F - 67.5 °F 82% 30.02 in 10.0 mi NNE 3.5 mph - N/A   Clear
6:55 AM 73.0 °F - 67.1 °F 82% 30.02 in 10.0 mi NNE 3.5 mph - N/A   Clear
7:15 AM 72.7 °F - 66.7 °F 82% 30.03 in 10.0 mi NNE 3.5 mph - N/A   Clear
7:35 AM 72.7 °F - 66.2 °F 80% 30.03 in 10.0 mi NNE 3.5 mph - N/A   Clear
7:55 AM 73.0 °F - 66.2 °F 79% 30.04 in 10.0 mi NNE 3.5 mph - N/A   Clear
8:15 AM 73.6 °F - 65.5 °F 76% 30.04 in 10.0 mi NNE 3.5 mph - N/A   Clear
8:35 AM 74.3 °F - 65.1 °F 73% 30.05 in 10.0 mi NE 3.5 mph - N/A   Clear
8:55 AM 74.7 °F - 65.7 °F 73% 30.05 in 10.0 mi NNE 3.5 mph - N/A   Clear
9:15 AM 75.9 °F - 64.6 °F 68% 30.05 in 10.0 mi NE 3.5 mph - N/A   Clear
9:35 AM 78.1 °F - 64.4 °F 63% 30.05 in 10.0 mi NE 6.9 mph - N/A   Clear
9:55 AM 78.8 °F - 64.4 °F 61% 30.05 in 10.0 mi ENE 5.8 mph - N/A   Clear
10:15 AM 80.2 °F 82.0 °F 64.6 °F 59% 30.05 in 10.0 mi North 4.6 mph - N/A   Clear
10:35 AM 81.9 °F 83.5 °F 64.8 °F 56% 30.05 in 10.0 mi NNE 4.6 mph - N/A   Clear
10:55 AM 83.3 °F 84.6 °F 63.9 °F 52% 30.05 in 10.0 mi NNE 5.8 mph - N/A   Clear
11:15 AM 84.4 °F 85.6 °F 64.0 °F 50% 30.05 in 10.0 mi North 5.8 mph - N/A   Clear
11:35 AM 85.1 °F 86.6 °F 64.6 °F 50% 30.04 in 10.0 mi North 5.8 mph - N/A   Clear
11:55 AM 85.8 °F 87.6 °F 65.3 °F 50% 30.04 in 10.0 mi NE 5.8 mph - N/A   Clear
12:15 PM 87.1 °F 88.9 °F 65.3 °F 48% 30.03 in 10.0 mi NNE 3.5 mph - N/A   Clear
12:35 PM 88.3 °F 90.2 °F 65.1 °F 46% 30.03 in 10.0 mi Calm Calm - N/A   Clear
12:55 PM 89.1 °F 90.6 °F 64.4 °F 44% 30.02 in 10.0 mi North 8.1 mph 16.1 mph N/A   Clear
1:15 PM 90.3 °F 90.8 °F 62.6 °F 39% 30.01 in 10.0 mi NNW 9.2 mph 16.1 mph N/A   Clear
1:35 PM 90.5 °F 90.4 °F 60.8 °F 37% 30.00 in 10.0 mi North 8.1 mph - N/A   Clear
1:55 PM 91.4 °F 90.7 °F 59.0 °F 34% 29.99 in 10.0 mi North 10.4 mph - N/A   Clear
2:15 PM 92.3 °F 91.0 °F 57.6 °F 31% 29.98 in 10.0 mi North 8.1 mph 18.4 mph N/A   Clear
2:35 PM 93.2 °F 91.6 °F 56.8 °F 29% 29.98 in 10.0 mi North 10.4 mph 17.3 mph N/A   Clear
2:55 PM 93.6 °F 92.1 °F 56.5 °F 29% 29.97 in 10.0 mi North 11.5 mph - N/A   Clear
3:15 PM 94.1 °F 91.9 °F 54.3 °F 26% 29.96 in 10.0 mi North 6.9 mph 16.1 mph N/A   Clear
3:35 PM 94.5 °F - 52.9 °F 24% 29.95 in 10.0 mi North 3.5 mph - N/A   Clear
3:55 PM 94.8 °F - 52.5 °F 24% 29.94 in 10.0 mi NE 4.6 mph - N/A   Clear
4:15 PM 95.4 °F - 51.1 °F 22% 29.93 in 10.0 mi ENE 8.1 mph - N/A   Clear
4:35 PM 95.5 °F - 50.5 °F 22% 29.93 in 10.0 mi North 6.9 mph - N/A   Clear
4:55 PM 95.4 °F - 50.7 °F 22% 29.93 in 10.0 mi NNE 8.1 mph - N/A   Clear
5:15 PM 95.5 °F - 51.8 °F 23% 29.93 in 10.0 mi ENE 6.9 mph - N/A   Scattered Clouds
5:35 PM 95.0 °F - 52.3 °F 24% 29.92 in 10.0 mi NE 8.1 mph - N/A   Scattered Clouds
5:55 PM 94.6 °F - 52.2 °F 24% 29.93 in 10.0 mi NE 5.8 mph - N/A   Clear
6:15 PM 93.4 °F 91.0 °F 53.2 °F 26% 29.92 in 10.0 mi ENE 6.9 mph - N/A   Clear
6:35 PM 93.6 °F - 52.3 °F 25% 29.93 in 10.0 mi NE 6.9 mph - N/A   Clear
6:55 PM 93.2 °F - 52.3 °F 25% 29.93 in 10.0 mi NNE 3.5 mph - N/A   Clear
7:15 PM 91.9 °F 89.5 °F 53.2 °F 27% 29.93 in 10.0 mi NE 4.6 mph - N/A   Clear
7:35 PM 90.7 °F 88.3 °F 53.8 °F 28% 29.94 in 10.0 mi NNE 4.6 mph - N/A   Clear
7:55 PM 89.4 °F 87.3 °F 54.5 °F 30% 29.95 in 10.0 mi NNE 3.5 mph - N/A   Clear
8:15 PM 88.2 °F 86.5 °F 55.8 °F 33% 29.95 in 10.0 mi NNE 3.5 mph - N/A   Clear
8:35 PM 86.0 °F 85.0 °F 57.6 °F 38% 29.95 in 10.0 mi Calm Calm - N/A   Clear
8:55 PM 84.4 °F 84.0 °F 59.0 °F 42% 29.97 in 10.0 mi Calm Calm - N/A   Clear
9:15 PM 84.7 °F 84.2 °F 58.3 °F 41% 29.97 in 10.0 mi Calm Calm - N/A   Clear
9:35 PM 83.7 °F 83.3 °F 58.5 °F 42% 29.97 in 10.0 mi NNE 3.5 mph - N/A   Clear
9:55 PM 83.3 °F 83.1 °F 58.6 °F 43% 29.98 in 10.0 mi Calm Calm - N/A   Clear
10:15 PM 81.7 °F 82.0 °F 59.5 °F 47% 29.98 in 10.0 mi NE 3.5 mph - N/A   Clear
10:35 PM 81.0 °F 81.3 °F 59.2 °F 47% 29.99 in 10.0 mi ENE 3.5 mph - N/A   Clear
10:55 PM 80.8 °F 81.4 °F 59.7 °F 49% 29.99 in 10.0 mi NE 3.5 mph - N/A   Clear
11:15 PM 79.7 °F - 59.9 °F 51% 29.99 in 10.0 mi ENE 3.5 mph - N/A   Clear
11:35 PM 79.7 °F - 59.9 °F 51% 29.99 in 10.0 mi NE 3.5 mph - N/A   Clear
11:55 PM 79.0 °F - 59.9 °F 52% 29.99 in 10.0 mi Calm Calm - N/A   Clear